Location: Newark
(33.6439°N, 114.9881°W)
Time: 08:56:34
(UTC+00:00)

Tiros 1 - Pass Details

Date: 27 July 2019
Orbit: 631 x 664 km, 48.4° (Epoch: 25 August)

Event Time Altitude Azimuth Distance (km) Brightness Sun altitude
Rises 14:49:56 0° 176° (S) 2,941 10.5 23.4°
Reaches altitude 10° 14:54:43 10° 132° (SE) 2,049 10.4 24.4°
Maximum altitude 14:55:13 10° 126° (SE) 2,040 10.5 24.5°
Drops below altitude 10° 14:55:44 10° 120° (ESE) 2,052 10.7 24.6°
Sets 15:00:33 0° 77° (ENE) 2,979 11.9 25.6°
